Precipitable_Water
0.72 0.72 0.71 0.69 0.66 0.68 0.67 0.67 0.66 0.64 0.63 0.59 0.60 0.62 0.56 0.54 0.49 0.41 0.31 0.37 0.42 0.46 0.39 0.33 0.37 0.35 0.45 0.39 0.41 0.36 0.27 0.23 0.27 0.47 0.58 0.74 0.74 0.89 0.92 0.81 0.77 0.88 0.95 1.10 1.21
0.75 0.74 0.74 0.71 0.67 0.69 0.69 0.68 0.67 0.65 0.62 0.59 0.62 0.61 0.55 0.52 0.39 0.50 0.59 0.56 0.48 0.44 0.27 0.26 0.34 0.32 0.33 0.36 0.39 0.32 0.26 0.27 0.47 0.59 0.58 0.67 0.69 0.79 0.84 0.86 0.79 0.80 1.10 1.29 1.27
0.78 0.76 0.77 0.74 0.71 0.69 0.70 0.69 0.67 0.64 0.61 0.59 0.61 0.58 0.53 0.49 0.53 0.51 0.56 0.53 0.47 0.42 0.30 0.41 0.43 0.37 0.32 0.37 0.37 0.32 0.29 0.38 0.50 0.65 0.71 0.68 0.67 0.73 0.71 0.76 0.86 0.81 0.91 1.26 1.33
0.80 0.78 0.80 0.77 0.73 0.71 0.71 0.70 0.68 0.64 0.60 0.59 0.60 0.54 0.50 0.46 0.28 0.57 0.51 0.48 0.46 0.43 0.41 0.41 0.39 0.35 0.33 0.29 0.34 0.31 0.34 0.38 0.58 0.71 0.74 0.71 0.75 0.71 0.74 0.80 0.92 0.91 1.00 1.24 1.26
0.84 0.80 0.80 0.80 0.74 0.73 0.72 0.71 0.68 0.63 0.59 0.58 0.58 0.52 0.42 0.34 0.36 0.64 0.52 0.49 0.43 0.37 0.40 0.43 0.38 0.35 0.32 0.34 0.35 0.34 0.35 0.54 0.58 0.58 0.72 0.74 0.64 0.61 0.62 0.79 1.03 1.09 1.08 1.11 1.11
0.91 0.83 0.82 0.80 0.76 0.75 0.73 0.71 0.68 0.62 0.58 0.59 0.56 0.51 0.39 0.31 0.63 0.67 0.47 0.39 0.32 0.36 0.40 0.46 0.40 0.38 0.35 0.34 0.32 0.34 0.38 0.55 0.63 0.67 0.66 0.56 0.60 0.69 0.65 0.82 0.92 0.93 0.96 0.90 0.84
1.01 0.88 0.82 0.80 0.77 0.77 0.74 0.71 0.66 0.61 0.58 0.58 0.56 0.48 0.33 0.33 0.61 0.57 0.56 0.39 0.44 0.39 0.38 0.44 0.45 0.43 0.40 0.38 0.44 0.39 0.41 0.41 0.58 0.62 0.59 0.60 0.53 0.57 0.66 0.71 0.68 0.84 0.82 0.77 0.73
1.09 0.92 0.83 0.80 0.77 0.77 0.75 0.71 0.64 0.59 0.56 0.56 0.55 0.48 0.26 0.53 0.59 0.54 0.55 0.50 0.54 0.51 0.48 0.49 0.54 0.45 0.41 0.45 0.39 0.35 0.37 0.35 0.45 0.54 0.61 0.55 0.41 0.60 0.72 0.69 0.64 0.70 0.63 0.74 0.79
1.09 0.96 0.85 0.80 0.78 0.77 0.76 0.71 0.63 0.57 0.54 0.54 0.49 0.52 0.30 0.62 0.46 0.49 0.56 0.55 0.57 0.56 0.50 0.50 0.45 0.39 0.43 0.40 0.34 0.34 0.29 0.34 0.39 0.48 0.51 0.48 0.43 0.60 0.82 0.76 0.75 0.71 0.67 0.69 0.70
1.05 0.98 0.85 0.79 0.77 0.77 0.77 0.69 0.60 0.53 0.54 0.52 0.47 0.36 0.39 0.33 0.46 0.46 0.51 0.57 0.53 0.52 0.47 0.43 0.37 0.37 0.41 0.37 0.29 0.30 0.31 0.33 0.33 0.37 0.44 0.39 0.38 0.57 0.68 0.66 0.60 0.79 0.77 0.76 0.64
0.98 1.00 0.84 0.77 0.75 0.79 0.75 0.60 0.56 0.56 0.54 0.25 0.33 0.36 0.41 0.49 0.52 0.43 0.49 0.50 0.52 0.52 0.40 0.40 0.35 0.35 0.39 0.43 0.41 0.37 0.33 0.32 0.33 0.38 0.31 0.34 0.35 0.43 0.56 0.53 0.59 0.65 0.75 0.68 0.68
0.98 0.99 0.86 0.75 0.76 0.81 0.75 0.46 0.59 0.61 0.42 0.50 0.43 0.42 0.46 0.53 0.39 0.40 0.49 0.42 0.46 0.41 0.47 0.41 0.36 0.44 0.44 0.45 0.41 0.37 0.34 0.31 0.32 0.34 0.26 0.32 0.33 0.35 0.47 0.49 0.64 0.66 0.69 0.63 0.74
0.98 0.98 0.89 0.74 0.77 0.76 0.64 0.48 0.64 0.66 0.40 0.36 0.37 0.38 0.41 0.47 0.34 0.36 0.43 0.41 0.46 0.45 0.42 0.37 0.39 0.48 0.45 0.41 0.36 0.35 0.35 0.30 0.28 0.27 0.19 0.24 0.27 0.32 0.39 0.45 0.66 0.68 0.63 0.65 0.72
0.90 0.96 0.91 0.73 0.65 0.75 0.67 0.58 0.51 0.61 0.27 0.25 0.38 0.28 0.38 0.43 0.33 0.39 0.43 0.40 0.43 0.41 0.44 0.43 0.45 0.41 0.41 0.38 0.34 0.29 0.39 0.38 0.35 0.31 0.17 0.30 0.22 0.33 0.39 0.44 0.50 0.57 0.63 0.71 0.76
0.83 0.92 0.92 0.69 0.69 0.67 0.80 0.81 0.74 0.67 0.14 0.30 0.39 0.43 0.36 0.35 0.32 0.34 0.44 0.42 0.38 0.43 0.44 0.41 0.42 0.39 0.40 0.39 0.39 0.35 0.39 0.36 0.36 0.34 0.36 0.34 0.30 0.32 0.43 0.39 0.43 0.54 0.58 0.66 0.74
0.81 0.88 0.93 0.66 0.69 0.77 0.99 0.95 0.81 0.33 0.16 0.35 0.40 0.34 0.31 0.33 0.30 0.34 0.38 0.43 0.48 0.44 0.43 0.43 0.48 0.46 0.42 0.40 0.39 0.38 0.34 0.32 0.36 0.35 0.26 0.28 0.28 0.33 0.36 0.40 0.44 0.51 0.59 0.62 0.74
0.84 0.86 0.87 0.69 0.55 0.90 0.92 0.82 0.34 0.24 0.31 0.33 0.32 0.34 0.32 0.29 0.27 0.31 0.33 0.32 0.31 0.30 0.31 0.38 0.40 0.48 0.48 0.35 0.36 0.38 0.28 0.24 0.21 0.22 0.20 0.37 0.36 0.36 0.42 0.47 0.43 0.44 0.47 0.56 0.72
0.83 0.87 0.88 0.71 0.82 0.92 0.85 0.56 0.27 0.28 0.27 0.35 0.35 0.35 0.27 0.28 0.27 0.30 0.33 0.30 0.29 0.29 0.32 0.33 0.28 0.41 0.51 0.39 0.35 0.38 0.29 0.25 0.20 0.24 0.27 0.39 0.35 0.34 0.41 0.49 0.52 0.50 0.56 0.59 0.68
0.86 0.77 0.78 0.74 0.85 0.93 0.65 0.35 0.29 0.32 0.28 0.32 0.33 0.28 0.23 0.29 0.32 0.28 0.29 0.31 0.31 0.26 0.27 0.32 0.35 0.47 0.52 0.46 0.44 0.32 0.32 0.40 0.34 0.38 0.32 0.35 0.34 0.43 0.49 0.46 0.54 0.52 0.54 0.58 0.66
0.72 0.67 0.59 0.81 0.84 0.84 0.50 0.35 0.37 0.38 0.43 0.38 0.30 0.26 0.22 0.28 0.31 0.30 0.28 0.28 0.30 0.31 0.37 0.38 0.31 0.46 0.53 0.52 0.44 0.30 0.38 0.31 0.31 0.20 0.15 0.17 0.25 0.31 0.42 0.45 0.40 0.41 0.48 0.60 0.65
0.70 0.48 0.62 0.85 0.81 0.64 0.33 0.38 0.40 0.42 0.50 0.44 0.35 0.26 0.23 0.27 0.34 0.29 0.28 0.32 0.35 0.37 0.45 0.43 0.38 0.38 0.50 0.44 0.31 0.29 0.25 0.21 0.24 0.24 0.20 0.17 0.21 0.32 0.30 0.32 0.32 0.47 0.55 0.58 0.59
0.58 0.36 0.64 0.84 0.45 0.50 0.34 0.40 0.43 0.43 0.53 0.51 0.44 0.31 0.24 0.31 0.36 0.28 0.25 0.40 0.45 0.43 0.40 0.53 0.41 0.31 0.34 0.38 0.37 0.31 0.32 0.41 0.25 0.19 0.24 0.22 0.18 0.32 0.28 0.29 0.32 0.34 0.49 0.57 0.61
0.50 0.50 0.78 0.69 0.28 0.34 0.39 0.38 0.40 0.44 0.49 0.49 0.40 0.34 0.31 0.32 0.36 0.28 0.30 0.48 0.50 0.46 0.43 0.39 0.29 0.21 0.23 0.32 0.40 0.34 0.29 0.32 0.35 0.33 0.26 0.19 0.18 0.30 0.28 0.29 0.31 0.31 0.36 0.51 0.59
0.55 0.40 0.59 0.60 0.37 0.35 0.31 0.28 0.32 0.47 0.52 0.52 0.43 0.36 0.33 0.36 0.42 0.38 0.33 0.45 0.47 0.44 0.44 0.39 0.28 0.22 0.14 0.14 0.31 0.34 0.36 0.33 0.26 0.22 0.24 0.23 0.23 0.20 0.25 0.30 0.32 0.33 0.36 0.42 0.51
0.59 0.40 0.55 0.36 0.38 0.35 0.37 0.31 0.31 0.39 0.52 0.54 0.43 0.34 0.34 0.32 0.35 0.38 0.42 0.40 0.44 0.43 0.39 0.33 0.20 0.23 0.23 0.27 0.33 0.35 0.36 0.41 0.32 0.27 0.23 0.24 0.25 0.23 0.31 0.32 0.34 0.36 0.37 0.38 0.43
0.52 0.41 0.54 0.47 0.50 0.40 0.35 0.30 0.32 0.41 0.48 0.45 0.44 0.32 0.37 0.33 0.32 0.32 0.38 0.39 0.34 0.41 0.35 0.34 0.21 0.24 0.21 0.26 0.30 0.30 0.36 0.36 0.36 0.32 0.29 0.28 0.27 0.32 0.35 0.34 0.33 0.34 0.37 0.40 0.42
0.67 0.62 0.53 0.47 0.49 0.39 0.30 0.32 0.35 0.42 0.48 0.47 0.47 0.40 0.35 0.40 0.43 0.51 0.49 0.53 0.52 0.44 0.38 0.36 0.30 0.27 0.23 0.30 0.26 0.18 0.19 0.23 0.24 0.31 0.31 0.23 0.27 0.32 0.33 0.34 0.35 0.36 0.37 0.38 0.39
Wind_Speed
24 24 23 23 24 24 25 25 26 28 29 29 28 27 26 25 24 16 14 14 12 12 12 10 9 9 10 12 13 12 11 11 9 6 7 9 9 10 11 9 8 10 10 10 10
24 24 24 23 24 24 24 25 26 27 28 28 27 25 25 23 19 13 15 14 11 9 6 8 8 9 9 9 9 12 11 10 9 8 10 8 10 8 9 7 7 6 7 9 9
25 24 24 23 23 24 24 24 25 26 27 26 25 24 23 21 13 10 15 10 7 4 4 6 7 8 10 10 10 10 12 9 8 7 6 7 9 9 11 9 7 3 5 12 14
26 25 24 23 23 23 23 23 24 25 25 24 23 23 22 16 9 12 14 7 3 2 3 4 6 8 7 9 10 10 13 9 7 2 4 3 1 3 5 6 9 9 7 9 13
27 25 24 23 22 23 23 23 24 24 23 22 21 21 17 13 12 12 10 5 3 2 4 5 5 6 7 6 7 10 8 6 8 5 2 2 2 4 4 8 10 9 9 10 11
27 25 24 23 22 22 22 22 23 23 21 20 20 19 13 11 9 8 6 3 1 3 5 6 5 5 8 8 7 8 9 7 9 8 3 1 4 3 3 8 10 9 10 10 9
27 26 24 23 22 22 22 21 21 21 19 18 17 15 12 10 6 6 4 1 2 2 4 5 5 3 5 4 2 8 7 4 8 11 3 4 2 3 5 9 9 10 9 10 8
28 26 24 23 22 21 21 20 20 19 17 16 15 13 10 8 7 7 3 2 2 3 6 7 5 6 5 5 4 6 6 5 4 10 5 3 4 6 8 8 9 9 7 9 8
29 27 25 23 22 21 20 19 18 17 15 14 12 10 10 9 4 3 4 3 4 3 5 5 4 8 6 3 4 6 7 6 6 7 5 4 4 8 9 7 8 7 7 9 9
30 27 25 23 21 20 19 18 16 15 13 12 11 10 9 5 4 4 4 3 1 2 2 3 4 8 6 6 6 4 5 8 7 7 8 3 6 9 10 9 9 7 7 8 8
30 28 26 23 21 19 17 15 13 11 12 11 8 7 4 7 5 3 3 3 2 3 3 6 7 7 6 6 5 6 5 5 7 9 6 7 9 8 10 9 11 11 7 8 9
30 29 26 23 21 19 16 14 11 12 14 14 15 14 12 8 5 7 6 3 3 5 2 6 6 5 6 8 5 5 6 9 8 8 5 5 8 9 11 9 12 11 9 8 9
30 28 26 23 21 19 18 18 16 14 12 13 13 12 10 9 9 8 11 7 5 5 5 5 8 4 7 7 7 4 2 3 6 3 5 5 4 9 10 8 11 12 11 11 12
31 28 26 23 20 18 15 14 16 13 11 11 11 12 12 12 12 11 13 7 6 5 6 6 9 7 7 8 8 7 4 5 5 2 4 3 5 6 9 9 10 13 14 15 14
33 30 27 25 20 18 14 11 13 9 9 8 9 8 12 12 6 11 12 14 8 7 4 6 8 9 6 8 4 5 7 5 6 6 5 7 6 13 12 12 11 12 14 14 16
36 32 29 26 23 22 17 13 12 10 12 8 8 9 10 12 13 12 11 12 9 9 5 10 10 7 8 6 7 5 4 5 6 6 7 9 9 9 13 17 13 13 14 13 15
38 34 31 27 23 20 20 15 12 13 11 10 11 9 12 12 14 14 15 15 12 9 6 6 10 8 6 4 6 5 5 5 5 5 8 9 8 12 15 14 14 13 13 13 15
40 37 34 31 28 22 20 18 18 15 16 6 11 10 10 13 14 14 13 15 19 14 8 9 6 5 6 10 8 8 8 8 7 6 10 9 8 8 12 14 14 13 12 12 13
41 39 36 33 32 26 24 24 21 16 17 11 12 10 12 14 12 14 15 15 17 19 13 10 9 11 11 8 7 8 6 9 5 6 4 8 8 7 3 6 9 12 11 11 11
42 39 37 35 34 29 27 28 22 21 12 15 14 12 13 15 16 15 13 16 16 20 15 13 10 10 15 11 11 9 9 5 5 6 7 6 5 5 3 5 9 9 11 10 10
43 38 37 38 35 32 33 28 25 25 18 14 17 14 15 13 17 13 13 14 16 13 12 13 11 9 10 10 10 8 9 10 9 7 7 4 6 5 2 5 4 9 11 12 11
43 40 37 41 35 34 36 30 26 27 22 19 14 17 16 13 15 15 15 10 14 17 15 16 10 9 13 11 9 10 8 9 7 9 8 7 10 10 7 6 6 7 12 14 14
42 37 38 42 38 37 32 32 30 30 25 17 16 16 14 15 14 15 13 11 10 13 11 11 9 8 9 7 8 10 11 12 8 7 9 6 9 7 8 9 9 9 9 13 15
42 39 37 41 41 39 36 34 35 32 28 23 20 18 16 13 19 15 14 11 11 12 12 10 10 10 11 12 10 9 10 12 11 9 10 10 11 14 12 13 12 11 10 11 15
46 44 39 39 43 40 39 34 35 32 30 22 20 23 20 16 16 15 14 13 12 13 12 12 12 13 13 12 11 12 11 10 11 11 10 12 12 13 10 8 11 12 12 12 12
46 44 40 29 39 39 40 40 38 35 29 27 20 23 21 17 19 17 14 13 14 13 13 13 13 12 13 13 12 13 13 13 12 11 10 10 13 12 11 10 10 11 12 14 16
50 44 41 37 36 41 42 41 37 34 28 26 22 20 22 19 17 13 13 11 12 12 13 12 11 10 12 11 11 13 14 15 15 15 14 14 15 13 10 10 12 13 15 16 18
Wind_Direction
285 289 293 297 302 306 310 313 317 320 322 324 326 327 327 325 323 316 311 307 302 289 273 257 242 225 226 220 215 215 221 227 248 278 259 252 251 259 250 242 261 271 259 228 206
283 286 290 295 300 304 308 312 315 319 322 324 325 327 327 326 323 314 320 310 301 294 258 226 218 213 212 210 209 205 206 229 240 258 260 247 230 264 261 230 278 264 246 197 196
281 284 287 292 297 302 306 310 314 318 322 323 325 326 327 325 322 320 331 315 305 279 230 212 224 206 211 212 216 209 217 218 259 272 251 264 266 258 242 248 238 238 191 156 154
278 282 285 289 294 299 304 308 313 317 320 322 324 326 326 322 319 325 334 329 296 257 207 206 213 212 219 215 219 214 223 226 209 9 285 198 182 226 243 227 177 157 190 168 154
275 279 281 286 291 297 301 305 311 315 319 321 324 327 328 320 308 318 330 333 307 216 197 198 211 206 200 196 228 212 212 202 212 203 211 13 309 144 90 172 178 166 150 140 150
272 275 277 281 287 294 298 303 310 313 316 319 324 326 323 318 329 332 339 348 331 208 211 205 207 223 227 234 228 201 215 200 197 170 175 240 117 115 165 144 158 154 156 150 149
268 271 274 278 284 290 295 300 307 310 313 317 323 324 314 298 331 334 350 340 54 198 193 214 247 224 221 216 243 185 181 206 178 178 204 137 135 185 146 139 154 161 157 157 151
264 267 270 274 280 287 291 298 303 306 309 314 320 321 308 309 299 297 276 255 294 261 232 255 261 214 203 239 224 180 189 185 181 199 165 159 205 195 173 160 172 161 161 160 159
260 263 266 270 276 282 288 294 298 300 303 308 315 314 303 311 289 286 234 264 261 274 245 252 245 201 202 192 184 191 201 189 193 201 186 202 193 181 173 162 174 171 163 155 160
256 259 262 266 270 277 283 289 292 296 297 299 299 313 298 286 267 286 235 249 201 278 216 203 167 170 182 172 170 196 183 194 200 212 201 222 188 162 174 161 183 200 186 176 170
253 255 258 261 264 271 279 283 288 290 287 277 294 289 317 304 238 258 199 194 181 113 151 156 147 169 179 172 221 205 208 240 236 214 208 209 189 183 190 188 201 205 204 188 179
250 251 254 256 259 263 267 268 272 292 290 271 264 261 272 279 263 233 193 185 165 183 167 184 180 176 169 215 227 228 307 262 230 186 203 183 223 209 192 208 196 191 180 218 209
248 247 248 250 253 256 258 259 264 296 284 282 252 248 250 253 243 244 196 204 180 190 197 189 210 223 213 237 241 222 232 211 174 195 234 242 228 211 213 204 196 210 223 219 206
244 243 243 243 246 249 253 263 254 268 284 274 240 249 243 243 247 226 217 205 230 210 216 233 224 207 227 250 230 244 211 217 188 216 198 207 237 232 230 219 232 220 224 221 213
238 238 237 235 242 237 250 255 243 254 282 266 226 249 228 227 231 215 230 212 209 219 220 215 188 206 238 224 189 246 208 217 221 243 244 251 244 257 245 250 253 248 229 229 224
234 234 232 235 234 234 243 248 234 247 256 250 219 224 222 226 227 222 205 203 205 197 244 223 216 211 222 238 210 248 240 243 246 252 246 250 250 275 229 243 238 250 231 235 232
231 229 228 228 227 233 230 227 231 237 249 237 206 222 229 227 224 218 210 211 208 202 220 219 212 217 221 225 247 238 251 257 277 282 240 319 261 253 238 240 231 234 234 245 231
227 226 227 226 225 229 221 219 233 232 234 227 214 222 231 222 217 223 201 209 219 215 209 206 222 239 222 235 238 255 225 229 232 249 279 279 259 256 251 230 228 238 248 235 228
223 225 226 223 221 222 217 223 227 227 220 234 207 223 232 222 211 215 216 216 215 215 210 214 233 257 249 249 249 254 259 235 233 255 302 239 271 282 202 218 243 250 238 223 218
221 222 224 217 216 217 220 227 228 225 230 222 231 225 222 217 217 208 213 219 217 214 213 226 235 268 228 262 259 237 244 244 257 225 257 268 288 232 226 237 261 237 226 218 228
218 221 220 212 212 216 222 225 223 224 229 230 232 225 222 216 210 213 217 218 208 205 204 223 229 254 212 239 244 232 240 237 238 237 236 252 254 226 249 263 259 235 222 228 236
216 219 212 205 212 218 223 220 220 221 226 238 235 225 215 211 217 218 215 220 206 203 217 221 223 227 222 241 232 230 231 233 230 251 247 241 260 253 252 256 265 260 241 241 244
215 214 208 207 213 217 219 220 218 219 226 231 222 218 218 215 213 209 205 214 199 204 205 217 231 233 259 260 256 249 246 244 247 247 240 235 252 252 258 264 274 265 265 250 254
210 207 208 212 215 213 212 213 215 216 227 231 222 220 221 215 198 219 203 208 209 209 218 220 228 220 227 237 245 262 257 255 240 245 248 246 266 277 271 261 264 268 270 268 268
207 209 208 209 212 211 209 209 209 213 214 221 219 214 211 211 204 207 206 207 212 220 226 229 232 240 246 256 262 257 254 261 252 246 237 256 253 264 285 276 271 266 276 283 293
207 205 206 211 205 207 205 209 208 208 213 214 216 210 210 210 207 216 206 213 223 234 237 239 239 241 251 258 260 264 266 262 263 262 263 266 262 265 254 272 283 289 291 290 295
204 205 205 206 202 204 206 205 206 204 212 211 210 203 210 214 205 212 213 215 222 229 229 228 229 235 246 260 266 266 252 251 253 257 261 268 271 273 272 285 288 291 294 291 295